User: anonymous   Login
Location: Mentone
(34.5413°N, 85.5351°W)
Time: 19:27:01
(UTC-05:00)
Language:

NOSS 2-2 (E) - Orbit

View from above orbital plane
View from above orbital plane
View from above satellite
View from above satellite

Ground track
Ground track

The orbit data is extracted from the following two-line orbital elements,

1 21809U 91076E   16238.81599186 0.00000110  00000-0  41086-4 0    08
2 21809  63.3570 141.2058 0718000  19.0305 340.9695 13.41283133    06
Epoch (UTC): 25 August 2016 19:35:01
Eccentricity: 0.0718000
inclination: 63.3570°
perigee height: 567 km
apogee height: 1642 km
right ascension of ascending node: 141.2058°
argument of perigee: 19.0305°
revolutions per day: 13.41283133
mean anomaly at epoch: 340.9695°
orbit number at epoch: 0

The dashed part of the orbit path shows where the satellite is in the earth's shadow,  

DLR